CAPE
1380 1166 975 1101 1230 1337 1115 1107 1219 1189 321 445 779 950 1232 1543 1433 1415 1189 1343 1137 1166 1555 1352 1541 1491 1827 1295 1751 1357 1664 1449 1056 701 1064 1417 1507 1647 1567 2101 1396 335 3
1165 1274 1285 1192 1353 1371 1207 1285 1396 1166 1183 1211 1095 1453 1268 1391 1057 1531 1197 1499 1282 942 1394 1244 1465 1461 1356 1713 1304 1228 1345 1223 895 898 929 1075 985 1405 771 1600 1941 1202 284
373 1211 1283 935 1432 1344 1237 1462 1402 1668 1280 1393 1408 1291 1102 1148 1292 1515 1218 1214 1297 1540 1533 1489 1440 942 1346 1340 1295 1064 991 960 1420 1230 1023 973 1517 853 985 1005 968 1006 1386
0 794 826 843 1143 1255 1260 1319 836 1385 1140 1211 1250 980 1001 1123 992 1023 1209 1102 869 1338 1470 1157 1039 1156 1037 1228 1134 965 675 692 944 603 701 929 1086 968 855 1458 1090 899 1223
5 513 518 730 967 838 1245 1026 1047 894 1467 1208 1371 1193 963 326 6 0 211 1166 913 929 734 830 214 330 697 851 1051 734 670 1126 913 822 561 556 822 1222 1301 1300 1149 1138 1003
256 143 82 309 608 758 1044 1199 1037 1285 1434 1063 1011 772 69 0 0 0 0 564 241 301 381 177 177 0 0 408 94 25 39 293 314 719 927 876 959 914 1150 1325 1346 1054 964
25 29 69 162 218 322 477 908 973 1075 1007 811 655 0 0 0 0 0 0 363 388 484 199 166 170 0 0 1 703 658 571 97 12 59 245 256 1019 922 1066 665 504 686 813
2 2 2 1 1 0 0 83 273 382 600 303 0 0 0 0 0 0 0 105 103 0 49 0 0 0 0 0 43 42 0 0 0 0 0 0 0 0 15 546 516 537 430
2 2 2 0 0 0 0 1 8 73 4 3 0 0 0 0 0 0 0 288 0 0 0 0 0 0 0 0 0 0 0 0 0 0 0 0 0 0 0 0 221 132 207
1 1 0 0 0 0 0 1 4 2 2 0 0 0 0 0 0 0 0 85 0 0 0 0 0 0 0 0 0 0 0 0 0 0 0 0 0 0 2 53 0 0 0
0 0 0 0 0 0 1 1 4 7 3 3 0 0 0 0 0 0 0 0 0 0 0 0 0 0 0 0 0 0 0 0 0 0 0 0 0 0 0 0 0 1 5
0 0 0 0 0 0 0 0 3 1 1 2 1 1 0 0 0 0 0 0 0 0 0 0 0 0 0 0 0 0 0 0 0 0 0 0 0 0 0 0 0 0 0
0 0 0 0 0 0 0 0 0 1 3 3 1 0 0 0 0 0 0 0 0 0 0 0 0 0 0 0 0 0 0 0 0 0 0 0 0 0 0 0 0 0 0
0 0 0 0 0 0 0 0 0 0 0 0 0 0 0 0 0 0 0 0 0 0 0 0 0 0 0 0 0 0 0 0 0 0 0 0 0 0 0 0 0 0 0
0 0 0 0 0 0 0 0 0 0 0 0 0 0 0 0 0 0 0 0 0 0 0 0 0 0 0 0 0 0 0 0 0 0 0 0 0 0 0 0 0 0 0
0 0 0 0 0 0 0 0 0 0 0 0 0 0 0 0 0 0 0 0 0 0 0 0 0 0 0 0 0 0 0 0 0 0 0 0 0 0 0 0 0 0 0
0 0 0 0 0 0 0 0 0 0 0 0 0 0 0 0 0 0 0 0 0 0 0 0 0 0 0 0 0 0 0 0 0 0 0 0 0 0 0 0 0 0 0
0 0 0 0 0 0 0 0 0 0 0 0 0 0 0 0 0 0 0 0 0 0 0 0 0 0 0 0 0 0 0 0 0 0 0 0 0 0 0 0 0 0 0
0 0 0 0 0 0 0 0 0 0 0 0 0 0 0 0 0 0 0 0 0 0 0 0 0 0 0 0 0 0 0 0 0 0 0 0 0 0 0 0 0 0 0
0 0 0 0 0 0 0 0 0 0 0 0 0 0 0 0 0 0 0 0 0 0 0 0 0 0 0 0 0 0 0 0 0 0 0 0 0 0 0 0 0 0 0
0 0 0 0 0 0 0 0 0 0 0 0 0 0 0 0 0 0 0 0 0 0 0 0 0 0 0 0 0 0 0 0 0 0 0 0 0 0 0 0 0 0 0
0 0 0 0 0 0 0 0 0 0 0 0 0 0 0 0 0 0 0 0 0 0 0 0 0 0 0 0 0 0 0 0 0 0 0 0 0 0 0 0 3 4 5
0 0 0 0 0 0 0 0 0 0 0 0 0 0 0 0 0 0 0 0 0 0 0 0 0 0 0 0 0 0 0 0 0 0 0 0 0 0 0 1 0 4 6
0 0 0 0 0 0 0 0 0 0 0 0 0 0 0 0 0 0 0 0 0 0 0 0 0 0 0 0 0 0 0 0 0 0 0 0 0 0 1 0 0 1 5
0 0 0 0 0 0 0 0 0 0 0 0 0 0 0 0 0 0 0 0 0 0 0 0 0 0 0 0 0 0 0 0 0 0 0 0 0 0 0 0 0 0 3
0 0 0 0 0 0 0 0 0 0 0 0 0 0 0 0 0 0 0 0 0 0 0 0 0 0 0 0 0 0 0 0 0 0 0 0 0 0 1 0 1 5 3
CIN
-65 -53 -45 -41 -33 -27 -37 -43 -30 -39 -138 -94 -60 -38 -35 -26 -28 -27 -33 -30 -37 -36 -34 -29 -30 -45 -43 -54 -74 -93 -61 -82 -60 -82 -113 -84 -61 -42 -58 -61 -141 -266 -161
-54 -39 -45 -52 -39 -36 -39 -39 -40 -34 -28 -33 -34 -26 -34 -28 -27 -35 -26 -20 -29 -39 -32 -28 -22 -17 -25 -38 -50 -59 -60 -78 -80 -81 -114 -55 -86 -141 -125 -87 -58 -58 -201
-56 -34 -36 -41 -26 -26 -35 -35 -32 -27 -31 -23 -24 -25 -24 -29 -28 -37 -28 -25 -29 -29 -29 -21 -21 -21 -22 -36 -38 -53 -74 -93 -64 -80 -69 -92 -45 -106 -96 -111 -114 -127 -83
0 -24 -33 -32 -34 -32 -33 -37 -47 -35 -39 -43 -37 -37 -32 -24 -52 -49 -30 -30 -50 -27 -26 -26 -21 -24 -29 -40 -43 -56 -82 -71 -85 -99 -101 -67 -68 -90 -114 -68 -107 -143 -112
-203 -36 -50 -81 -57 -39 -34 -31 -40 -48 -37 -36 -28 -34 -34 -149 -46 0 -200 -58 -43 -33 -50 -77 -187 -191 -95 -58 -44 -64 -72 -53 -64 -76 -91 -101 -84 -73 -67 -60 -75 -93 -111
-5 -182 -288 -216 -55 -43 -34 -36 -30 -23 -23 -34 -30 -61 -223 0 0 0 0 -103 -159 -126 -72 -146 -201 0 0 -155 -175 -211 -162 -81 -85 -59 -51 -55 -53 -50 -46 -32 -22 -46 -66
-310 -289 -307 -233 -162 -104 -68 -36 -28 -20 -26 -28 -48 0 0 0 0 0 0 -128 -83 -76 -142 -174 -150 0 0 -52 -84 -97 -86 -170 -89 -111 -101 -101 -45 -58 -36 -48 -51 -27 -19
0 0 0 0 0 0 0 -201 -95 -78 -50 -86 0 0 0 0 0 0 0 -138 -149 0 -67 0 0 0 0 0 -63 -57 0 0 0 0 0 0 0 0 -58 -31 -38 -37 -51
0 0 0 0 0 0 0 0 -23 -95 -32 0 0 0 0 0 0 0 0 -84 0 0 0 0 0 0 0 0 0 0 0 0 0 0 0 0 0 0 0 0 -38 -74 -63
0 0 0 0 0 0 0 0 0 0 0 0 0 0 0 0 0 0 0 -86 0 0 0 0 0 0 0 0 0 0 0 0 0 0 0 0 0 0 -32 -52 0 0 0
0 0 0 0 0 0 0 0 0 0 0 0 0 0 0 0 0 0 0 0 0 0 0 0 0 0 0 0 0 0 0 0 0 0 0 0 0 0 0 0 0 -32 -21
0 0 0 0 0 0 0 0 0 0 0 0 0 0 0 0 0 0 0 0 0 0 0 0 0 0 0 0 0 0 0 0 0 0 0 0 0 0 0 0 0 0 0
0 0 0 0 0 0 0 0 0 0 0 0 0 0 0 0 0 0 0 0 0 0 0 0 0 0 0 0 0 0 0 0 0 0 0 0 0 0 0 0 0 0 0
0 0 0 0 0 0 0 0 0 0 0 0 0 0 0 0 0 0 0 0 0 0 0 0 0 0 0 0 0 0 0 0 0 0 0 0 0 0 0 0 0 0 0
0 0 0 0 0 0 0 0 0 0 0 0 0 0 0 0 0 0 0 0 0 0 0 0 0 0 0 0 0 0 0 0 0 0 0 0 0 0 0 0 0 0 0
0 0 0 0 0 0 0 0 0 0 0 0 0 0 0 0 0 0 0 0 0 0 0 0 0 0 0 0 0 0 0 0 0 0 0 0 0 0 0 0 0 0 0
0 0 0 0 0 0 0 0 0 0 0 0 0 0 0 0 0 0 0 0 0 0 0 0 0 0 0 0 0 0 0 0 0 0 0 0 0 0 0 0 0 0 0
0 0 0 0 0 0 0 0 0 0 0 0 0 0 0 0 0 0 0 0 0 0 0 0 0 0 0 0 0 0 0 0 0 0 0 0 0 0 0 0 0 0 0
0 0 0 0 0 0 0 0 0 0 0 0 0 0 0 0 0 0 0 0 0 0 0 0 0 0 0 0 0 0 0 0 0 0 0 0 0 0 0 0 0 0 0
0 0 0 0 0 0 0 0 0 0 0 0 0 0 0 0 0 0 0 0 0 0 0 0 0 0 0 0 0 0 0 0 0 0 0 0 0 0 0 0 0 0 0
0 0 0 0 0 0 0 0 0 0 0 0 0 0 0 0 0 0 0 0 0 0 0 0 0 0 0 0 0 0 0 0 0 0 0 0 0 0 0 -3 -1 0 -1
0 0 0 0 0 0 0 0 0 0 0 0 0 0 0 0 0 0 0 0 0 0 0 0 0 0 0 0 0 0 0 0 0 0 0 0 0 0 -1 -1 0 -1 0
0 0 0 0 0 0 0 0 0 0 0 0 0 0 0 0 0 0 0 0 0 0 0 0 0 0 0 0 0 0 0 0 0 0 0 0 0 0 0 -1 -1 0 0
0 0 0 0 0 0 0 0 0 0 0 0 0 0 0 0 0 0 0 0 0 0 0 0 0 0 0 0 0 0 0 0 0 0 0 0 0 0 0 0 0 0 0
0 0 0 0 0 0 0 0 0 0 0 0 0 0 0 0 0 0 0 0 0 0 0 0 0 0 0 0 0 0 0 0 0 0 0 0 0 0 0 0 0 -1 0
0 0 0 0 0 0 0 0 0 0 0 0 0 0 0 0 0 0 0 0 0 0 0 0 0 0 0 0 0 0 0 0 0 0 0 0 0 0 0 0 0 0 0
Wind_Speed
11 9 7 6 7 6 5 5 3 3 6 6 6 6 6 6 6 4 3 2 2 0 2 1 3 3 2 3 3 3 4 1 1 4 2 3 3 4 4 6 3 5 4
7 10 8 7 6 6 6 6 5 5 4 6 5 5 3 4 4 5 5 2 5 5 6 3 4 3 1 3 2 3 2 1 1 2 3 3 3 5 4 5 4 2 4
8 9 8 7 7 7 6 6 5 5 5 4 4 3 3 1 2 5 6 5 5 3 3 5 6 1 3 3 2 3 2 2 2 0 2 2 2 3 4 4 4 5 6
10 11 11 10 8 8 7 7 7 6 5 5 4 4 3 2 3 3 2 4 3 4 2 4 1 4 1 2 2 3 2 4 2 3 3 3 2 3 2 3 6 3 6
11 6 5 5 7 7 6 7 6 6 6 5 5 5 4 6 3 4 3 4 6 2 5 6 6 9 8 2 1 2 2 2 3 3 3 2 2 3 4 3 3 3 4
11 7 2 2 6 5 4 6 5 6 6 6 5 3 6 5 5 4 3 1 8 4 1 6 5 11 9 9 3 4 4 2 3 1 2 3 3 2 3 3 3 4 4
11 8 9 7 4 4 3 4 5 5 4 4 2 8 6 5 7 4 6 4 5 5 5 6 6 5 5 5 6 5 4 4 1 1 1 2 3 2 2 4 3 2 3
10 9 6 8 6 7 8 6 4 2 2 5 9 8 7 6 12 10 4 6 9 8 7 8 6 5 6 6 5 6 7 6 6 3 3 6 6 5 3 2 2 3 3
7 6 5 5 7 6 8 7 5 8 9 9 8 9 8 6 10 7 3 8 9 8 6 6 6 6 8 8 6 6 6 6 6 7 8 11 10 8 6 1 4 3 2
8 7 6 6 6 6 4 7 7 11 10 8 11 8 10 8 15 16 10 5 8 6 5 6 7 6 6 8 6 6 6 5 7 10 11 13 12 10 7 3 2 2 2
7 6 6 6 6 5 5 6 10 8 11 9 10 8 8 10 12 16 14 7 3 5 4 3 3 7 8 6 5 5 2 4 5 4 5 5 5 6 5 5 4 2 3
7 6 5 6 5 4 6 6 7 10 9 8 7 7 6 7 13 15 18 13 10 6 4 2 2 6 5 7 5 6 9 6 4 5 4 5 5 8 5 6 7 6 4
6 6 5 5 6 9 8 5 4 5 6 6 5 5 5 5 6 16 17 17 14 5 5 6 9 7 6 5 9 9 10 7 7 8 6 6 4 5 7 9 9 8 6
6 6 5 8 9 9 7 7 6 5 4 5 5 6 3 2 4 3 4 5 9 7 10 6 6 6 5 2 5 7 5 5 5 4 4 3 4 7 6 5 4 7 4
5 5 5 5 7 8 8 5 5 5 4 4 4 4 4 1 1 3 4 4 4 5 7 3 8 8 8 7 8 9 9 9 9 8 8 8 8 8 8 7 7 5 4
5 2 3 4 3 4 6 4 8 9 10 11 10 5 3 3 0 6 4 4 5 7 2 7 7 7 8 7 8 7 8 10 8 7 7 7 7 7 7 7 8 7 7
5 4 5 5 4 5 5 4 3 4 8 9 8 8 6 4 7 9 9 7 6 4 8 7 7 7 6 6 6 5 4 5 4 5 6 6 7 7 8 7 6 6 6
2 5 5 4 4 3 6 4 4 4 3 2 4 3 6 8 9 9 10 6 6 8 6 6 6 6 5 6 6 5 6 4 5 5 6 6 8 8 8 8 7 7 7
5 3 4 3 4 7 7 6 6 5 4 4 1 3 1 4 5 7 10 6 6 6 5 6 5 6 6 5 5 5 5 6 7 6 7 7 8 7 7 7 8 12 11
2 5 5 6 2 3 3 3 5 8 6 5 4 4 3 2 1 1 3 4 5 5 4 5 5 5 5 5 5 5 5 6 6 6 5 4 5 6 6 7 7 8 8
2 3 4 4 3 3 2 1 2 4 3 7 5 4 8 3 3 4 4 5 5 5 5 5 5 5 5 5 5 4 4 4 5 5 4 4 4 5 5 5 6 7 8
4 5 3 2 1 2 3 3 3 4 4 7 4 4 9 3 2 4 5 5 5 5 5 5 4 5 4 4 3 4 4 4 4 3 4 4 4 4 5 5 7 7 8
4 5 4 3 3 3 4 4 3 5 4 6 6 5 3 4 4 5 5 5 5 5 5 5 5 5 4 4 3 3 5 4 2 2 3 3 3 4 6 7 8 8 8
1 1 5 5 4 3 3 2 1 1 2 5 5 6 6 5 5 6 6 5 5 5 5 6 6 7 6 5 4 5 5 4 3 2 3 3 4 7 7 7 7 10 9
2 2 3 2 2 2 2 5 4 4 4 4 6 5 4 4 6 6 6 6 6 6 7 6 5 8 9 10 8 8 9 9 5 3 1 3 4 7 8 8 9 9 11
4 4 3 1 3 4 4 3 3 4 4 2 1 4 4 5 5 6 5 6 5 5 6 5 7 11 12 9 9 12 8 8 4 4 1 2 3 5 6 8 12 8 11
Wind_Direction
165 173 188 212 203 196 192 221 190 163 177 179 193 194 197 177 157 161 172 205 118 27 316 309 309 343 8 1 17 23 27 114 109 300 290 297 292 269 319 300 155 220 188
165 179 185 198 204 204 203 197 190 193 164 193 181 167 176 180 181 179 187 208 177 224 234 221 256 252 196 70 53 21 64 75 144 299 301 328 352 4 338 287 357 340 216
290 174 184 199 192 202 209 206 200 196 179 167 147 155 141 225 257 206 185 227 233 229 245 224 219 193 165 180 115 75 34 59 47 39 321 318 328 336 352 10 6 342 23
291 208 186 194 181 193 202 207 195 193 193 193 190 184 172 230 5 23 244 240 291 289 352 355 249 103 80 184 121 121 57 23 28 0 4 337 5 319 45 17 352 340 354
279 215 156 266 191 190 192 183 177 183 193 191 191 187 179 96 57 14 327 284 233 291 5 30 45 43 347 343 110 33 48 31 7 4 341 337 306 353 18 322 343 321 324
190 202 149 266 249 202 180 168 167 186 198 192 196 174 103 89 44 37 340 8 92 110 74 71 58 34 17 7 328 93 116 87 341 332 304 332 316 332 324 341 343 0 348
66 51 48 50 35 320 251 197 186 194 183 180 155 107 86 68 9 10 26 57 103 110 79 34 64 37 11 14 2 37 28 49 328 194 307 285 297 284 336 335 347 330 276
56 54 40 61 51 44 28 356 309 257 152 88 88 83 75 25 357 345 356 84 86 65 71 92 92 55 21 7 34 48 73 47 21 2 327 296 283 299 323 294 285 299 305
77 71 50 58 66 50 46 2 320 85 82 83 85 86 79 36 358 357 63 105 104 89 71 78 89 63 15 23 58 54 36 11 339 338 307 288 289 275 239 51 12 21 329
67 64 56 60 59 58 57 48 55 85 83 88 90 72 65 52 24 31 43 104 108 114 103 86 73 95 63 42 66 53 38 349 344 349 1 31 44 61 90 74 53 31 345
84 67 53 47 70 56 35 64 81 69 84 79 86 67 52 41 38 24 24 50 91 116 92 79 68 44 39 41 51 60 30 304 338 33 35 17 27 19 6 1 8 36 20
77 71 64 57 49 59 60 55 88 105 98 108 89 77 53 36 38 30 26 32 30 70 70 23 21 14 4 353 1 357 358 13 24 17 31 18 26 15 356 350 5 12 31
75 73 67 65 61 44 33 40 53 92 121 112 104 87 73 36 29 20 19 20 27 33 359 328 334 347 6 9 14 39 41 47 48 48 29 18 9 3 15 11 8 0 357
56 65 50 64 58 44 44 37 40 23 50 79 117 96 53 43 45 9 31 15 19 0 346 317 317 300 315 324 51 48 52 50 49 53 36 353 349 20 13 351 356 359 16
100 80 75 84 80 80 63 36 56 53 335 85 73 106 135 126 194 74 32 16 342 326 314 10 53 47 51 41 48 51 40 35 33 25 28 24 18 16 12 4 10 0 15
104 95 116 108 105 103 109 89 53 75 29 55 69 98 56 96 359 67 39 357 316 300 54 64 59 54 52 42 41 40 39 38 31 21 20 19 10 5 10 13 14 20 16
137 140 139 121 149 144 126 132 114 50 87 70 62 70 84 106 32 4 354 359 66 62 69 60 64 60 55 47 43 42 33 39 29 31 27 18 20 14 12 8 6 20 7
165 168 141 144 168 212 152 137 138 143 111 62 38 46 29 29 13 355 353 96 53 53 65 64 69 65 55 51 37 30 29 27 21 25 28 19 25 22 16 20 10 2 356
154 214 245 260 164 187 185 165 161 163 144 130 66 0 10 311 342 8 45 72 84 71 70 68 63 66 57 47 42 32 28 38 38 35 34 31 22 18 16 8 357 356 351
233 192 156 155 145 354 11 103 157 160 166 146 169 200 152 136 61 120 87 93 90 85 76 69 59 64 64 58 43 32 33 40 41 36 29 17 9 7 360 350 347 341 337
233 255 183 142 159 183 193 215 135 124 127 146 152 168 148 125 198 147 107 98 105 101 91 84 80 73 68 61 52 39 40 43 53 45 23 9 0 349 334 336 346 329 322
209 200 192 208 269 226 214 218 192 164 171 160 164 169 149 148 142 133 125 125 120 125 126 116 107 103 99 87 69 57 39 65 68 34 2 346 350 333 337 337 331 329 330
230 184 196 205 224 250 198 172 193 187 162 171 161 156 178 180 169 153 140 145 140 142 149 139 133 129 137 130 121 111 94 102 94 28 356 348 337 333 345 332 330 322 318
93 150 186 203 193 192 196 189 188 66 93 123 179 173 189 189 177 160 156 158 163 161 157 152 155 156 151 144 128 112 121 128 113 76 38 344 345 346 330 319 313 315 310
113 28 71 119 64 45 228 190 213 217 209 181 158 167 195 181 155 158 172 175 171 167 175 168 165 159 158 157 156 142 156 149 125 106 34 14 320 302 294 292 294 297 298
207 195 232 188 139 82 61 64 86 78 45 355 251 183 192 185 188 188 188 184 180 180 172 174 173 166 170 170 164 155 159 160 157 149 183 259 276 282 286 296 297 295 298